TimeMST,TemperatureF,Dew PointF,Humidity,Sea Level PressureIn,VisibilityMPH,Wind Direction,Wind SpeedMPH,Gust SpeedMPH,PrecipitationIn,Events,Conditions,WindDirDegrees,DateUTC
12:03 AM,1.4,-2.2,85,30.31,1.5,Calm,Calm,-,N/A,,Scattered Clouds,0,2013-01-23 07:03:00
12:53 AM,1.0,-2.0,87,30.46,1.5,Calm,Calm,-,N/A,,Clear,0,2013-01-23 07:53:00
1:53 AM,3.0,-0.0,87,30.45,1.8,SE,4.6,-,N/A,,Clear,130,2013-01-23 08:53:00
2:53 AM,1.9,-2.0,83,30.45,1.8,Calm,Calm,-,N/A,,Clear,0,2013-01-23 09:53:00
3:53 AM,1.0,-2.0,87,30.45,1.8,Calm,Calm,-,N/A,,Clear,0,2013-01-23 10:53:00
4:53 AM,3.0,-0.0,87,30.45,1.5,Calm,Calm,-,N/A,,Partly Cloudy,0,2013-01-23 11:53:00
5:12 AM,3.2,-0.4,85,30.29,1.8,Calm,Calm,-,N/A,,Mostly Cloudy,0,2013-01-23 12:12:00
5:53 AM,3.9,1.0,88,30.44,1.5,Calm,Calm,-,N/A,,Overcast,0,2013-01-23 12:53:00
6:38 AM,1.4,-2.2,85,30.28,2.0,Calm,Calm,-,N/A,,Scattered Clouds,0,2013-01-23 13:38:00
6:46 AM,3.2,-0.4,85,30.27,1.8,Calm,Calm,-,N/A,,Partly Cloudy,0,2013-01-23 13:46:00
6:53 AM,1.9,-0.9,88,30.44,1.8,SE,3.5,-,N/A,,Partly Cloudy,140,2013-01-23 13:53:00
7:53 AM,3.9,1.0,88,30.45,1.5,Calm,Calm,-,N/A,,Clear,0,2013-01-23 14:53:00
8:13 AM,5.0,1.4,85,30.26,1.2,Calm,Calm,-,N/A,,Clear,0,2013-01-23 15:13:00
8:27 AM,5.0,1.4,85,30.26,1.0,Calm,Calm,-,N/A,,Clear,0,2013-01-23 15:27:00
8:53 AM,7.0,1.9,80,30.42,1.0,Calm,Calm,-,N/A,,Haze,0,2013-01-23 15:53:00
9:53 AM,10.0,6.1,84,30.42,1.0,Calm,Calm,-,N/A,,Clear,0,2013-01-23 16:53:00
10:53 AM,10.9,6.1,81,30.45,1.0,NNW,3.5,-,N/A,,Haze,330,2013-01-23 17:53:00
11:53 AM,15.1,9.0,77,30.38,1.2,Calm,Calm,-,N/A,,Haze,0,2013-01-23 18:53:00
12:53 PM,17.1,9.0,71,30.40,1.5,North,4.6,-,0.00,,Haze,360,2013-01-23 19:53:00
1:53 PM,19.0,10.0,68,30.35,1.5,Calm,Calm,-,N/A,,Haze,0,2013-01-23 20:53:00
2:53 PM,19.9,12.0,71,30.32,1.8,NNW,4.6,-,N/A,,Haze,330,2013-01-23 21:53:00
3:53 PM,19.0,10.9,71,30.33,1.5,WSW,5.8,-,N/A,,Haze,240,2013-01-23 22:53:00
4:01 PM,17.6,10.4,73,30.18,1.2,West,4.6,-,N/A,,Haze,260,2013-01-23 23:01:00
4:53 PM,17.1,10.0,74,30.33,1.2,West,5.8,-,N/A,,Haze,280,2013-01-23 23:53:00
5:51 PM,17.6,10.4,73,30.18,2.0,ENE,5.8,-,N/A,,Haze,60,2013-01-24 00:51:00
5:53 PM,17.1,10.0,74,30.33,2.0,NE,5.8,-,N/A,,Haze,50,2013-01-24 00:53:00
6:53 PM,17.1,10.9,77,30.34,2.0,Calm,Calm,-,N/A,,Haze,0,2013-01-24 01:53:00
7:53 PM,18.0,12.0,78,30.32,2.0,West,8.1,-,N/A,,Haze,270,2013-01-24 02:53:00
8:53 PM,16.0,10.9,81,30.34,2.0,WSW,5.8,-,N/A,,Haze,250,2013-01-24 03:53:00
9:53 PM,16.0,10.9,81,30.30,2.0,WSW,10.4,-,N/A,,Haze,240,2013-01-24 04:53:00
10:07 PM,15.8,10.4,79,30.16,3.0,NE,10.4,-,N/A,,Haze,40,2013-01-24 05:07:00
10:44 PM,17.6,12.2,79,30.17,2.0,WSW,5.8,-,N/A,,Haze,240,2013-01-24 05:44:00
10:53 PM,17.1,10.9,77,30.32,2.0,West,8.1,19.6,N/A,,Haze,260,2013-01-24 05:53:00
11:53 PM,18.0,12.0,78,30.33,2.5,East,4.6,-,N/A,,Haze,80,2013-01-24 06:53:00